Location: Archamps
(46.1365°N, 6.1329°E)
Time: 12:13:42
(UTC+00:00)

Cosmos 1892 - Pass Details

Date: 28 January 2023
Orbit: 486 x 506 km, 82.5° (Epoch: 25 March)

Event Time Altitude Azimuth Distance (km) Brightness Sun altitude
Rises 18:26:31 0° 182° (S) 2,557 6.3 -19.5°
Reaches altitude 10° 18:28:36 10° 181° (S) 1,684 5.4 -19.8°
Maximum altitude 18:32:16 72° 97° (E) 528 2.4 -20.5°
Enters shadow 18:32:18 72° 92° (E) 529 2.4 -20.5°
